• In Belarus
  • List of Countries
  • For 7 days
  • Water Temperature
  • Satellite Maps
  • Weather Map
  • Weather Widgets
  • user-avatar
    Login

    Hourly Weather Muri

    Today, 22 September, Saturday

    Time Temperature Precipitation Wind Pressure Humidity
    00:00 +13°C° 0.1 mm 1 mps 716 mmHg 95%
    01:00 +13°C° 0 mm 1 mps 716 mmHg 96%
    02:00 +12°C° 0 mm 1 mps 716 mmHg 96%
    03:00 +12°C° 0 mm 1 mps 716 mmHg 96%
    04:00 +12°C° 0 mm 1 mps 716 mmHg 95%
    05:00 +12°C° 0 mm 1 mps 717 mmHg 95%
    06:00 +11°C° 0 mm 1 mps 717 mmHg 94%
    07:00 +13°C° 0 mm 1 mps 717 mmHg 86%
    08:00 +15°C° 0 mm 1 mps 717 mmHg 77%
    09:00 +18°C° 0 mm 1 mps 717 mmHg 69%
    10:00 +19°C° 0 mm 1 mps 717 mmHg 61%
    11:00 +20°C° 0 mm 1 mps 717 mmHg 54%
    12:00 +21°C° 0 mm 2 mps 717 mmHg 46%
    13:00 +21°C° 0 mm 2 mps 717 mmHg 47%
    14:00 +21°C° 0 mm 2 mps 716 mmHg 47%
    15:00 +21°C° 0 mm 2 mps 716 mmHg 47%
    16:00 +20°C° 0 mm 1 mps 716 mmHg 53%
    17:00 +19°C° 0 mm 1 mps 716 mmHg 59%
    18:00 +16°C° 0 mm 1 mps 716 mmHg 65%
    19:00 +16°C° 0.1 mm 1 mps 716 mmHg 65%
    20:00 +16°C° 0.1 mm 1 mps 717 mmHg 65%
    21:00 +16°C° 0.1 mm 1 mps 717 mmHg 65%
    22:00 +17°C° 0 mm 2 mps 717 mmHg 65%
    23:00 +17°C° 0 mm 2 mps 717 mmHg 64%

    Tomorrow, 23 September, Sunday

    Time Temperature Precipitation Wind Pressure Humidity
    00:00 +17°C° 0 mm 2 mps 716 mmHg 64%
    01:00 +17°C° 0 mm 2 mps 716 mmHg 64%
    02:00 +17°C° 0 mm 2 mps 716 mmHg 65%
    03:00 +16°C° 0 mm 2 mps 716 mmHg 65%
    04:00 +16°C° 0 mm 2 mps 716 mmHg 66%
    05:00 +16°C° 0 mm 2 mps 716 mmHg 68%
    06:00 +16°C° 0 mm 2 mps 716 mmHg 69%
    07:00 +18°C° 0 mm 3 mps 716 mmHg 66%
    08:00 +20°C° 0 mm 3 mps 716 mmHg 63%
    09:00 +22°C° 0 mm 3 mps 716 mmHg 61%
    10:00 +23°C° 0 mm 4 mps 716 mmHg 59%
    11:00 +25°C° 0 mm 4 mps 715 mmHg 57%
    12:00 +27°C° 0 mm 4 mps 715 mmHg 55%
    13:00 +27°C° 0.1 mm 4 mps 715 mmHg 57%
    14:00 +26°C° 0.1 mm 5 mps 714 mmHg 58%
    15:00 +26°C° 0.1 mm 5 mps 714 mmHg 59%
    16:00 +25°C° 0.3 mm 5 mps 713 mmHg 66%
    17:00 +22°C° 0.3 mm 4 mps 713 mmHg 73%
    18:00 +20°C° 0.3 mm 4 mps 712 mmHg 80%
    19:00 +20°C° 1.1 mm 5 mps 713 mmHg 84%
    20:00 +19°C° 1.1 mm 5 mps 714 mmHg 88%
    21:00 +17°C° 1.1 mm 5 mps 714 mmHg 93%
    22:00 +15°C° 1.5 mm 4 mps 715 mmHg 93%
    23:00 +14°C° 1.5 mm 3 mps 716 mmHg 93%

    Day after tomorrow, 24 September, Monday

    Time Temperature Precipitation Wind Pressure Humidity
    00:00 +13°C° 1.5 mm 2 mps 717 mmHg 94%
    01:00 +13°C° 0.2 mm 2 mps 717 mmHg 94%
    02:00 +12°C° 0.2 mm 2 mps 718 mmHg 94%
    03:00 +10°C° 0.2 mm 2 mps 718 mmHg 94%
    04:00 +9°C° 0 mm 2 mps 718 mmHg 94%
    05:00 +9°C° 0 mm 2 mps 719 mmHg 94%
    06:00 +8°C° 0 mm 2 mps 719 mmHg 94%
    07:00 +9°C° 0 mm 3 mps 719 mmHg 88%
    08:00 +10°C° 0 mm 3 mps 720 mmHg 83%
    09:00 +11°C° 0 mm 3 mps 720 mmHg 77%
    10:00 +12°C° 0 mm 4 mps 720 mmHg 71%
    11:00 +13°C° 0 mm 4 mps 720 mmHg 64%
    12:00 +13°C° 0 mm 4 mps 720 mmHg 58%
    13:00 +14°C° 0 mm 4 mps 720 mmHg 57%
    14:00 +14°C° 0 mm 5 mps 720 mmHg 55%
    15:00 +14°C° 0 mm 5 mps 720 mmHg 54%
    16:00 +12°C° 0 mm 4 mps 720 mmHg 60%
    17:00 +11°C° 0 mm 4 mps 721 mmHg 66%
    18:00 +9°C° 0 mm 3 mps 721 mmHg 72%
    19:00 +9°C° 0 mm 3 mps 721 mmHg 73%
    20:00 +8°C° 0 mm 3 mps 722 mmHg 74%
    21:00 +7°C° 0 mm 3 mps 722 mmHg 76%
    22:00 +7°C° 0 mm 3 mps 722 mmHg 75%
    23:00 +7°C° 0 mm 3 mps 722 mmHg 74%

    25 September, Tuesday

    Time Temperature Precipitation Wind Pressure Humidity
    00:00 +5°C° 0 mm 3 mps 722 mmHg 73%
    01:00 +5°C° 0 mm 3 mps 722 mmHg 74%
    02:00 +5°C° 0 mm 3 mps 722 mmHg 75%
    03:00 +5°C° 0 mm 3 mps 722 mmHg 76%
    04:00 +5°C° 0 mm 3 mps 722 mmHg 77%
    05:00 +5°C° 0 mm 3 mps 722 mmHg 78%
    06:00 +6°C° 0 mm 2 mps 722 mmHg 80%
    07:00 +8°C° 0 mm 3 mps 722 mmHg 71%
    08:00 +10°C° 0 mm 3 mps 722 mmHg 63%
    09:00 +13°C° 0 mm 3 mps 723 mmHg 54%
    10:00 +14°C° 0 mm 4 mps 722 mmHg 51%
    11:00 +15°C° 0 mm 4 mps 722 mmHg 48%
    12:00 +17°C° 0 mm 4 mps 722 mmHg 45%
    13:00 +17°C° 0 mm 4 mps 722 mmHg 47%
    14:00 +17°C° 0 mm 3 mps 722 mmHg 49%
    15:00 +17°C° 0 mm 3 mps 721 mmHg 51%
    16:00 +14°C° 0 mm 3 mps 721 mmHg 60%
    17:00 +13°C° 0 mm 2 mps 721 mmHg 70%
    18:00 +9°C° 0 mm 2 mps 721 mmHg 79%
    19:00 +9°C° 0 mm 2 mps 722 mmHg 81%
    20:00 +9°C° 0 mm 1 mps 722 mmHg 84%
    21:00 +8°C° 0 mm 1 mps 722 mmHg 86%
    22:00 +8°C° 0 mm 1 mps 722 mmHg 86%
    23:00 +8°C° 0 mm 1 mps 722 mmHg 86%

    26 September, Wednesday

    Time Temperature Precipitation Wind Pressure Humidity
    00:00 +8°C° 0 mm 1 mps 722 mmHg 87%
    01:00 +8°C° 0 mm 1 mps 722 mmHg 86%
    02:00 +8°C° 0 mm 1 mps 722 mmHg 85%
    03:00 +8°C° 0 mm 1 mps 722 mmHg 84%
    04:00 +8°C° 0 mm 1 mps 722 mmHg 83%
    05:00 +8°C° 0 mm 1 mps 722 mmHg 81%
    06:00 +8°C° 0 mm 1 mps 722 mmHg 79%
    07:00 +12°C° 0 mm 1 mps 722 mmHg 68%
    08:00 +15°C° 0 mm 1 mps 722 mmHg 57%
    09:00 +20°C° 0 mm 1 mps 723 mmHg 46%
    10:00 +21°C° 0 mm 1 mps 722 mmHg 43%
    11:00 +22°C° 0 mm 1 mps 722 mmHg 41%
    12:00 +24°C° 0 mm 1 mps 722 mmHg 38%
    13:00 +23°C° 0 mm 1 mps 722 mmHg 40%
    14:00 +23°C° 0 mm 1 mps 722 mmHg 42%
    15:00 +23°C° 0 mm 1 mps 721 mmHg 45%
    16:00 +20°C° 0 mm 1 mps 721 mmHg 55%
    17:00 +16°C° 0 mm 1 mps 721 mmHg 65%
    18:00 +13°C° 0 mm 1 mps 721 mmHg 75%
    19:00 +13°C° 0 mm 1 mps 721 mmHg 75%
    20:00 +12°C° 0 mm 1 mps 721 mmHg 75%
    21:00 +12°C° 0 mm 1 mps 721 mmHg 76%
    22:00 +12°C° 0 mm 1 mps 721 mmHg 74%
    23:00 +12°C° 0 mm 1 mps 721 mmHg 73%

    27 September, Thursday

    Time Temperature Precipitation Wind Pressure Humidity
    00:00 +11°C° 0 mm 1 mps 721 mmHg 72%
    01:00 +11°C° 0 mm 1 mps 720 mmHg 71%
    02:00 +11°C° 0 mm 1 mps 720 mmHg 69%
    03:00 +11°C° 0 mm 1 mps 720 mmHg 68%
    04:00 +11°C° 0 mm 1 mps 720 mmHg 66%
    05:00 +11°C° 0 mm 1 mps 720 mmHg 64%
    06:00 +11°C° 0 mm 1 mps 720 mmHg 62%
    07:00 +15°C° 0 mm 1 mps 720 mmHg 55%
    08:00 +19°C° 0 mm 1 mps 720 mmHg 48%
    09:00 +22°C° 0 mm 1 mps 721 mmHg 41%
    10:00 +23°C° 0 mm 1 mps 720 mmHg 39%
    11:00 +24°C° 0 mm 1 mps 720 mmHg 37%
    12:00 +26°C° 0 mm 1 mps 720 mmHg 34%
    13:00 +25°C° 0 mm 1 mps 720 mmHg 37%
    14:00 +25°C° 0 mm 1 mps 719 mmHg 39%
    15:00 +25°C° 0 mm 1 mps 719 mmHg 42%
    16:00 +22°C° 0 mm 1 mps 719 mmHg 51%
    17:00 +19°C° 0 mm 1 mps 719 mmHg 61%
    18:00 +15°C° 0 mm 1 mps 718 mmHg 70%
    19:00 +14°C° 0 mm 1 mps 719 mmHg 72%
    20:00 +14°C° 0 mm 1 mps 719 mmHg 73%
    21:00 +13°C° 0 mm 1 mps 719 mmHg 74%
    22:00 +13°C° 0 mm 1 mps 718 mmHg 74%
    23:00 +12°C° 0 mm 1 mps 718 mmHg 73%
    Show more